Location: Copper Breaks State Park
(34.1132°N, 99.7492°W)
Time: 04:33:34
(UTC-06:00)

Daily predictions for brighter satellites

Satellite Brightness Start Highest point End
(mag) Time Altitude Azimuth Time Altitude Azimuth Time Altitude Azimuth
CZ-3 R/B 4.4 03:32:46 10° SW 03:59:06 33° S 04:07:08 10° ESE
USA 215 4.4 04:10:13 10° ENE 04:16:08 37° SE 04:16:25 37° SE
Lacrosse 5 3.8 04:34:49 27° E 04:34:49 27° E 04:37:47 10° ENE
Cosmos 2297 4.4 05:00:51 46° SSE 05:00:51 46° SSE 05:04:44 10° SSE
SL-08 ROCKET BODY 4.3 05:08:44 10° S 05:14:43 82° E 05:20:37 10° N
SL-16 R/B 4.5 05:22:03 11° N 05:22:03 11° N 05:22:16 10° N
OAO 3 Copernicus 4.2 05:25:06 80° N 05:25:06 80° N 05:30:11 10° E
Thor Agena Rocket 3.4 05:21:19 10° S 05:25:51 65° SW 05:25:51 65° SW
Cosmos 2074 Rocket 3.8 05:20:55 10° S 05:27:11 80° W 05:33:28 10° N
Cosmos 1812 4.3 05:29:35 27° S 05:29:35 27° S 05:31:24 10° S
DASH 3.5 05:27:48 32° S 05:28:02 33° SSE 05:32:53 10° E
Meteor 1-25 Rocket 4.3 05:29:13 10° SSW 05:34:54 54° W 05:40:36 10° N
Okean 1 3.3 05:35:51 77° NNE 05:36:05 82° E 05:40:05 10° S
Meteor 1-11 Rocket 4.5 05:31:47 10° S 05:37:29 54° E 05:43:05 10° NNE
Cosmos 2056 Rocket 4.1 05:33:57 18° N 05:37:40 53° ENE 05:42:38 10° SSE
ASTRO E2 4.4 05:36:36 22° S 05:37:48 26° SSE 05:41:11 10° ESE
Abrixas rocket 4.1 05:43:16 22° NNE 05:43:16 22° NNE 05:44:44 10° NE
Cosmos 2184 Rocket 3.9 05:38:20 10° SSW 05:44:22 59° W 05:50:29 10° N
Cosmos 1346 Rocket 2.6 05:47:10 55° NNW 05:47:59 84° W 05:51:55 10° S
Cosmos 1624 Rocket 4.0 05:47:20 19° NNW 05:51:16 82° ENE 05:56:35 10° SSE
Ariane Rocket 3.5 05:47:13 10° NNE 05:52:13 59° ESE 05:57:11 10° S
Cosmos 1371 Rocket 3.9 05:53:08 25° NNW 05:56:17 72° WSW 06:01:29 10° S
Cosmos 1238 Rocket 4.0 05:54:50 34° NW 05:56:31 44° W 06:02:13 10° SSW
SJ-6F 4.5 05:54:06 10° N 05:58:03 51° WNW 06:02:00 10° SSW
USA 32 4.2 05:55:40 24° NNW 05:58:31 47° W 06:03:30 10° SSW
USA 215 3.4 05:52:54 10° NNE 05:59:11 53° NW 06:03:49 19° WSW
Cosmos 2154 Rocket 3.9 05:53:56 10° S 06:00:09 88° W 06:06:23 10° N
Cosmos 1536 Rocket 3.9 06:01:53 38° WNW 06:02:39 41° W 06:06:46 10° SSW
CSL-04 Rocket 4.2 05:57:37 10° NNE 06:03:07 62° ESE 06:08:31 10° S
PSLV R/B 3.7 06:02:42 42° NNW 06:03:22 50° NNE 06:06:41 10° E
Cosmos 1025 Rocket 4.3 06:04:19 10° N 06:08:28 42° E 06:12:35 10° SSE
Meteor 2-4 Rocket 4.4 06:05:31 10° N 06:10:58 56° E 06:16:33 10° SSE
Cosmos 921 Rocket 3.8 06:11:05 29° W 06:11:50 31° W 06:15:49 10° SSW
Cosmos 44 Rocket 3.8 06:09:02 15° WSW 06:13:00 40° WNW 06:17:50 10° NNE
CENTAUR R/B 4.4 06:14:52 11° NNW 06:14:52 11° NNW 06:16:34 10° NNW
Cosmos 1603 4.4 06:11:08 15° WSW 06:15:04 31° WNW 06:20:02 10° N
Lacrosse 5 2.5 06:14:07 25° W 06:16:07 34° NW 06:20:46 10° NNE
Cosmos 2369 Rocket 2.7 06:12:02 10° NNW 06:17:41 61° ENE 06:23:17 10° SSE
Cosmos 1536 2.7 06:14:30 10° S 06:18:27 76° W 06:22:27 10° N
Okean 1 Rocket 3.3 06:15:12 10° SSW 06:19:25 45° W 06:23:38 10° N
CZ-4 R/B 3.0 06:16:47 10° NNE 06:20:25 36° E 06:24:01 10° SSE
SL-24 DEB 4.4 06:17:15 10° S 06:22:02 84° E 06:26:50 10° N
COSMO-SKYMED 1 2.8 06:21:34 10° S 06:25:45 47° W 06:29:57 10° NNW
Cosmos 1452 Rocket 4.0 06:21:45 10° N 06:27:00 64° ENE 06:32:13 10° SSE
SL-8 Rocket 4.3 06:25:14 10° S 06:31:29 74° E 06:37:42 10° N
Cosmos 1943 3.5 06:33:39 10° SW 06:38:58 43° WNW 06:44:19 10° N
Lacrosse 4 Rocket 4.0 06:37:20 10° NNE 06:39:58 16° NE 06:42:36 10° E
IRS-1A Rocket 4.4 06:34:28 10° NNE 06:40:14 89° WNW 06:46:05 10° SSW
Okean 1-7 Rocket 3.9 06:38:29 10° NNW 06:42:38 42° W 06:46:45 10° SSW
Tiangong 2 2.9 06:44:45 11° NW 06:47:03 21° NNE 06:49:34 10° ENE
Cosmos 1633 4.1 06:46:15 10° WSW 06:48:41 17° WNW 06:51:08 10° NW
Cosmos 2218 Rocket 4.2 06:43:58 10° S 06:50:22 87° E 06:56:48 10° N
Cosmos 1892 Rocket 3.9 06:46:03 10° N 06:50:31 74° E 06:54:59 10° S
GRACE-2 3.8 06:48:40 10° N 06:51:26 66° W 06:54:11 10° S
GRACE-1 3.8 06:49:06 10° N 06:51:51 63° W 06:54:37 10° S
GPS 2-05 Rocket1 3.9 06:53:00 10° W 06:56:19 37° SSW 06:59:41 10° SE
Cosmos 1943 Rocket 2.7 06:54:09 10° NNW 06:59:36 62° ENE 07:05:02 10° SSE
Helios 1B rocket 3.0 06:57:17 10° SSE 07:01:22 63° ENE 07:05:29 10° N
Cosmos 1269 Rocket 4.0 06:56:17 10° SSW 07:01:30 66° WNW 07:06:47 10° N
PAYLOAD A 4.2 06:57:30 10° N 07:02:48 59° WNW 07:08:08 10° SSW
Cosmos 1975 3.6 06:58:52 10° S 07:02:53 60° E 07:06:56 10° NNE
Cosmos 158 Rocket 4.3 06:58:42 10° S 07:03:56 79° ESE 07:09:18 10° NNE
